Weather History for Somerset, KY

Change the Weather History Date:

Monday, April 1, 2013

  Actual Average Record
Temperature  
Mean Temperature 49 °F -  
Max Temperature 57 °F 65 °F 78 °F (2014)
Min Temperature 41 °F 40 °F 28 °F (1997)
Degree Days  
Heating Degree Days 16    
Moisture  
Dew Point 36 °F    
Average Humidity 70    
Maximum Humidity 100    
Minimum Humidity 38    
Precipitation  
Precipitation 0.00 in - - ()
Sea Level Pressure  
Sea Level Pressure 30.01 in    
Wind  
Wind Speed 4 mph (WNW)    
Max Wind Speed 15 mph    
Max Gust Speed 26 mph    
Visibility 7 miles    
Events Fog    
Averages and records for this station are not official NWS values.
T = Trace of Precipitation, MM = Missing Value Source: NWS Daily Summary

Daily Weather History Graph

Daily Weather History Graph

Search for Another Location

Airport:

Trip Planner

Search our weather history database for the weather conditions in past years. The results will help you decide how hot, cold, wet, or windy it might be!

Date:

Astronomy

Apr. 01, 2013 Rise Set
Actual Time 7:23 AM EDT 8:01 PM EDT
Civil Twilight 6:57 AM EDT 8:27 PM EDT
Nautical Twilight 6:26 AM EDT 8:58 PM EDT
Astronomical Twilight 5:55 AM EDT 9:30 PM EDT
Moon 1:02 AM EDT (4/1) 11:15 AM EDT (4/1)
Length of Visible Light 13h 29m
Length of Day
12h 37m
Waning Gibbous, 67% of the Moon is Illuminated
Apr 1
Waning Gibbous
Apr 3
Last Quarter
Apr 10
New
Apr 18
First Quarter
Apr 25
Full

Hourly Weather History & Observations

Time (EDT) Temp. Windchill Dew Point Humidity Pressure Visibility Wind Dir Wind Speed Gust Speed Precip Events Conditions
12:15 AM 44.6 °F - 44.6 °F 100% 29.91 in 0.8 mi Calm Calm - N/A   Mostly Cloudy
12:35 AM 42.8 °F - 42.8 °F 100% 29.91 in 0.2 mi Calm Calm - N/A Fog Fog
12:55 AM 42.8 °F - 42.8 °F 100% 29.91 in 0.2 mi Calm Calm - N/A Fog Fog
1:15 AM 42.8 °F - 41.0 °F 93% 29.92 in 0.5 mi Calm Calm - N/A Fog Fog
1:35 AM 42.8 °F - 42.8 °F 100% 29.92 in 0.2 mi Calm Calm - N/A Fog Fog
1:55 AM 42.8 °F - 41.0 °F 93% 29.91 in 0.2 mi Calm Calm - N/A Fog Fog
2:15 AM 41.0 °F - 41.0 °F 100% 29.91 in 0.2 mi Calm Calm - N/A Fog Fog
2:35 AM 41.0 °F 39.0 °F 41.0 °F 100% 29.92 in 0.2 mi SSW 3.5 mph - N/A Fog Fog
2:55 AM 42.8 °F - 42.8 °F 100% 29.92 in 0.2 mi Calm Calm - N/A Fog Fog
3:15 AM 42.8 °F - 41.0 °F 93% 29.92 in 0.2 mi Calm Calm - N/A Fog Fog
3:35 AM 42.8 °F - 42.8 °F 100% 29.92 in 0.2 mi Calm Calm - N/A Fog Fog
3:55 AM 42.8 °F - 42.8 °F 100% 29.92 in 0.2 mi Calm Calm - N/A Fog Fog
4:15 AM 42.8 °F - 42.8 °F 100% 29.92 in 0.2 mi Calm Calm - N/A Fog Fog
4:35 AM 42.8 °F - 42.8 °F 100% 29.92 in 0.2 mi Calm Calm - N/A Fog Fog
4:55 AM 42.8 °F - 42.8 °F 100% 29.92 in 0.2 mi Calm Calm - N/A Fog Fog
5:15 AM 44.6 °F - 44.6 °F 100% 29.92 in 0.5 mi Calm Calm - N/A Fog Fog
5:35 AM 44.6 °F - 44.6 °F 100% 29.92 in 0.5 mi Calm Calm - N/A Fog Fog
5:55 AM 44.6 °F 43.1 °F 44.6 °F 100% 29.92 in 0.5 mi South 3.5 mph - N/A Fog Fog
6:15 AM 44.6 °F 43.1 °F 44.6 °F 100% 29.92 in 0.5 mi SW 3.5 mph - N/A Fog Fog
6:35 AM 44.6 °F 42.2 °F 44.6 °F 100% 29.93 in 2.0 mi SW 4.6 mph - N/A   Overcast
6:55 AM 44.6 °F 41.4 °F 44.6 °F 100% 29.94 in 2.5 mi WSW 5.8 mph - N/A   Overcast
7:15 AM 44.6 °F 43.1 °F 44.6 °F 100% 29.95 in 3.0 mi SW 3.5 mph - N/A   Overcast
7:35 AM 44.6 °F 42.2 °F 44.6 °F 100% 29.96 in 4.0 mi WSW 4.6 mph - N/A   Overcast
7:55 AM 44.6 °F 42.2 °F 44.6 °F 100% 29.97 in 4.0 mi West 4.6 mph - N/A   Overcast
8:15 AM 44.6 °F 42.2 °F 44.6 °F 100% 29.98 in 4.0 mi WSW 4.6 mph - N/A   Overcast
8:35 AM 46.4 °F 44.3 °F 46.4 °F 100% 29.98 in 5.0 mi West 4.6 mph - N/A   Overcast
8:55 AM 46.4 °F 45.2 °F 46.4 °F 100% 29.99 in 5.0 mi West 3.5 mph - N/A   Overcast
9:15 AM 46.4 °F 44.3 °F 46.4 °F 100% 30.00 in 7.0 mi WNW 4.6 mph - N/A   Overcast
9:35 AM 46.4 °F 42.9 °F 46.4 °F 100% 30.02 in 10.0 mi NW 6.9 mph - N/A   Overcast
10:15 AM 48.2 °F - 42.8 °F 82% 30.03 in 10.0 mi NNW 4.6 mph - N/A   Overcast
10:35 AM 50.0 °F - 41.0 °F 71% 30.03 in 10.0 mi North 10.4 mph - N/A   Overcast
10:55 AM 48.2 °F - 39.2 °F 71% 30.04 in 10.0 mi NNE 6.9 mph - N/A   Overcast
11:15 AM 46.4 °F 41.9 °F 39.2 °F 76% 30.05 in 10.0 mi North 9.2 mph - N/A   Overcast
11:35 AM 46.4 °F 42.4 °F 35.6 °F 66% 30.05 in 10.0 mi NNE 8.1 mph - N/A   Overcast
11:55 AM 48.2 °F - 35.6 °F 62% 30.06 in 10.0 mi North 6.9 mph - N/A   Overcast
12:15 PM 50.0 °F - 35.6 °F 58% 30.07 in 10.0 mi North 5.8 mph - N/A   Overcast
12:35 PM 50.0 °F - 35.6 °F 58% 30.07 in 10.0 mi Calm Calm - N/A   Mostly Cloudy
12:55 PM 51.8 °F - 35.6 °F 54% 30.06 in 10.0 mi NNW 5.8 mph - N/A   Mostly Cloudy
1:15 PM 51.8 °F - 35.6 °F 54% 30.06 in 10.0 mi WSW 8.1 mph - N/A   Mostly Cloudy
1:35 PM 51.8 °F - 35.6 °F 54% 30.05 in 10.0 mi WNW 5.8 mph - N/A   Overcast
1:55 PM 53.6 °F - 32.0 °F 44% 30.05 in 10.0 mi West 11.5 mph 16.1 mph N/A   Mostly Cloudy
2:15 PM 53.6 °F - 32.0 °F 44% 30.05 in 10.0 mi WNW 11.5 mph - N/A   Scattered Clouds
2:35 PM 53.6 °F - 33.8 °F 47% 30.05 in 10.0 mi WNW 10.4 mph 16.1 mph N/A   Scattered Clouds
2:55 PM 53.6 °F - 32.0 °F 44% 30.04 in 10.0 mi WNW 8.1 mph 11.5 mph N/A   Overcast
3:15 PM 53.6 °F - 33.8 °F 47% 30.03 in 10.0 mi WNW 9.2 mph - N/A   Mostly Cloudy
3:35 PM 55.4 °F - 33.8 °F 44% 30.03 in 10.0 mi NW 9.2 mph - N/A   Scattered Clouds
3:55 PM 57.2 °F - 32.0 °F 38% 30.03 in 10.0 mi West 15.0 mph 26.5 mph N/A   Scattered Clouds
4:15 PM 55.4 °F - 32.0 °F 41% 30.03 in 10.0 mi NW 13.8 mph 19.6 mph N/A   Scattered Clouds
4:35 PM 55.4 °F - 30.2 °F 38% 30.03 in 10.0 mi WNW 11.5 mph 21.9 mph N/A   Clear
4:55 PM 57.2 °F - 32.0 °F 38% 30.03 in 10.0 mi WNW 9.2 mph 18.4 mph N/A   Clear
5:15 PM 53.6 °F - 30.2 °F 41% 30.03 in 10.0 mi WNW 12.7 mph 18.4 mph N/A   Scattered Clouds
5:35 PM 53.6 °F - 30.2 °F 41% 30.03 in 10.0 mi West 11.5 mph 25.3 mph N/A   Scattered Clouds
6:15 PM 53.6 °F - 28.4 °F 38% 30.05 in 10.0 mi West 13.8 mph 19.6 mph N/A   Scattered Clouds
6:35 PM 53.6 °F - 28.4 °F 38% 30.05 in 10.0 mi WNW 12.7 mph 18.4 mph N/A   Scattered Clouds
7:15 PM 51.8 °F - 26.6 °F 38% 30.05 in 10.0 mi NNW 10.4 mph 18.4 mph N/A   Clear
7:35 PM 50.0 °F - 26.6 °F 40% 30.06 in 10.0 mi NW 10.4 mph 16.1 mph N/A   Clear
7:55 PM 50.0 °F - 26.6 °F 40% 30.07 in 10.0 mi NW 9.2 mph - N/A   Clear
8:15 PM 46.4 °F 41.9 °F 26.6 °F 46% 30.07 in 10.0 mi NW 9.2 mph - N/A   Clear
8:35 PM 46.4 °F 41.5 °F 24.8 °F 43% 30.08 in 10.0 mi NNW 10.4 mph - N/A   Clear
8:55 PM 46.4 °F 42.4 °F 24.8 °F 43% 30.08 in 10.0 mi NW 8.1 mph - N/A   Clear
9:15 PM 44.6 °F 41.4 °F 23.0 °F 43% 30.10 in 10.0 mi NW 5.8 mph - N/A   Clear
9:35 PM 44.6 °F 42.2 °F 23.0 °F 43% 30.10 in 10.0 mi NW 4.6 mph - N/A   Clear
9:55 PM 44.6 °F 42.2 °F 21.2 °F 39% 30.11 in 10.0 mi NNW 4.6 mph - N/A   Clear
10:15 PM 42.8 °F 39.3 °F 21.2 °F 42% 30.12 in 10.0 mi NW 5.8 mph - N/A   Clear
10:35 PM 42.8 °F 40.1 °F 21.2 °F 42% 30.13 in 10.0 mi NW 4.6 mph - N/A   Clear
10:55 PM 42.8 °F - 21.2 °F 42% 30.13 in 10.0 mi Calm Calm - N/A   Clear
11:15 PM 41.0 °F 39.0 °F 21.2 °F 45% 30.13 in 10.0 mi NNW 3.5 mph - N/A   Clear
11:35 PM 41.0 °F - 21.2 °F 45% 30.14 in 10.0 mi Calm Calm - N/A   Clear
11:55 PM 41.0 °F - 21.2 °F 45% 30.14 in 10.0 mi Calm Calm - N/A   Clear